CAPE
0 0 0 0 0 0 0 0 0 0 0 2 0 0 0 0 0 0 0 0 0 0 0 0 0 0 1599 934 186 737 1032 666 897 614 1123 644 426 528 800 544 296 281 213 330
0 0 0 0 0 0 0 1 0 0 0 2 0 0 0 0 0 0 0 0 0 0 0 0 0 0 1850 1394 840 902 390 55 841 1183 1143 859 642 855 876 490 462 223 287 666
0 0 0 0 0 3 0 0 0 0 0 0 0 0 0 0 0 0 0 0 0 0 0 0 0 0 1878 1600 1125 292 164 197 763 1444 1127 710 994 1026 878 590 631 691 470 573
0 0 0 0 0 0 0 0 0 21 1 0 0 0 0 0 0 0 0 0 0 0 0 0 0 0 287 1731 1260 648 826 1492 1150 1255 1022 981 933 1163 898 635 273 235 265 224
0 0 0 0 0 0 0 0 0 0 4 1 0 0 0 0 0 0 0 0 0 0 0 0 0 0 0 1821 1858 1460 997 1315 84 9 404 1034 816 712 342 137 74 31 51 0
0 0 0 0 0 0 2 1 0 0 0 0 0 0 0 0 0 0 0 0 0 0 0 0 0 0 0 495 2310 2057 1564 1117 0 0 0 150 680 361 302 42 7 63 36 4
0 0 0 0 0 0 0 0 0 0 0 0 0 0 0 0 0 0 0 0 0 0 0 0 0 0 0 615 2286 1982 1832 1624 403 69 594 577 312 390 302 42 48 42 58 1
0 0 0 0 0 1 2 3 16 0 0 0 0 0 0 0 0 0 0 0 0 0 0 0 0 0 0 479 1983 2251 2046 1783 1406 821 810 238 0 572 243 56 54 17 17 0
6 6 0 0 0 0 2 0 1 3 4 18 0 0 0 0 0 0 0 0 0 0 0 0 0 0 0 95 1371 2291 2131 1880 1324 1083 1096 514 522 713 480 65 6 0 0 0
28 19 0 0 0 0 1 7 2 30 1 2 0 0 0 0 4 1 20 1 1 0 0 0 0 0 3 34 1178 2358 2265 1756 1252 1116 933 466 130 448 134 60 0 0 0 0
2 22 0 0 0 0 0 3 10 7 23 3 0 0 0 0 1 0 9 42 71 2 0 11 16 0 23 1228 2015 2312 2134 1511 1206 790 467 643 402 134 2 0 0 0 0 0
0 8 3 0 0 0 0 0 5 10 0 49 41 0 0 0 18 31 26 31 139 272 105 0 6 0 1167 2128 2423 2121 1896 1394 1160 609 386 366 152 2 0 0 0 0 0 0
1 3 1 0 0 0 10 6 10 17 31 2 24 0 0 0 0 15 27 131 59 204 142 15 0 0 630 2300 2400 1815 1422 1067 609 385 125 0 1 2 3 0 0 0 0 0
24 1 1 0 0 0 3 0 1 7 35 0 3 0 0 0 1 6 8 73 2 173 63 31 31 55 1 1588 1767 1270 1057 667 366 22 0 2 2 3 0 0 0 0 0 0
4 3 5 1 0 0 1 2 5 5 1 16 0 0 0 0 0 0 7 77 35 6 0 0 100 176 68 1418 1329 828 625 241 10 1 1 3 4 0 0 0 0 0 0 0
0 1 9 12 0 0 0 18 12 16 3 0 0 0 0 0 0 150 173 307 52 3 96 525 1122 997 917 914 789 518 52 1 0 2 3 3 0 0 0 0 0 0 0 0
0 0 5 0 0 0 9 6 5 3 3 17 5 0 1 0 22 18 36 30 33 0 63 779 866 610 294 131 96 0 1 1 2 3 4 5 0 0 0 0 0 0 0 0
0 0 4 1 0 0 1 0 2 9 1 8 3 10 7 3 0 1 13 26 1 43 236 427 455 112 32 2 2 1 1 2 3 6 9 5 0 0 0 0 0 0 0 0
0 1 2 3 0 0 10 0 15 17 4 5 6 3 1 0 0 0 25 18 76 70 11 344 104 18 3 4 1 3 7 7 7 7 5 2 0 0 0 0 0 0 0 0
0 0 9 8 2 0 13 4 0 4 7 1 3 2 2 1 0 0 0 0 1 3 0 107 24 1 1 2 0 0 1 0 1 5 2 1 0 0 0 0 0 0 0 0
0 0 0 1 5 12 8 2 0 0 2 3 6 5 12 0 0 0 0 0 31 92 27 20 4 2 1 2 0 0 0 1 4 4 0 0 0 0 0 0 0 0 0 0
6 1 0 0 0 0 0 1 3 8 1 4 4 12 3 1 0 0 0 23 13 10 17 2 1 3 2 0 0 0 1 3 1 1 0 0 0 0 0 0 0 0 0 0
3 0 0 0 0 0 0 5 7 12 7 20 12 4 1 2 0 0 0 2 12 0 1 1 0 0 0 0 0 0 1 1 0 0 0 0 0 0 0 0 0 0 0 0
9 8 6 4 0 1 0 2 10 10 5 22 17 2 1 0 0 1 1 1 1 0 0 0 0 1 1 0 0 0 0 0 0 0 0 0 0 0 0 0 0 0 0 0
1 5 4 1 1 0 2 2 7 2 6 9 1 2 1 0 0 0 1 1 1 1 1 3 1 0 0 0 0 0 0 0 0 0 0 0 0 0 0 0 0 0 0 0
0 0 3 0 2 8 3 7 4 5 19 2 2 1 0 0 0 0 1 1 1 1 1 2 1 0 0 0 0 0 0 0 0 0 0 0 0 0 0 0 0 0 0 0
CIN
-0 -0 -0 -0 -0 -0 -0 -0 -0 -0 -0 -61 -0 -0 -0 -0 -0 -0 -0 -0 -0 -0 -0 -0 -0 -0 -80 -159 -351 -223 -226 -249 -100 -79 -69 -136 -267 -349 -269 -321 -361 -366 -370 -383
-0 -0 -0 -0 -0 -0 -0 -30 -0 -0 -0 -55 -0 -0 -0 -0 -0 -0 -0 -0 -0 -0 -0 -0 -0 -0 -73 -99 -212 -114 -243 -334 -247 -54 -89 -82 -147 -209 -242 -274 -244 -327 -320 -274
-0 -0 -0 -0 -0 -12 -0 -0 -0 -0 -0 -31 -0 -0 -0 -0 -0 -0 -0 -0 -0 -0 -0 -0 -0 -0 -65 -88 -109 -332 -393 -369 -202 -107 -53 -145 -131 -174 -202 -203 -182 -180 -269 -262
-0 -0 -0 -0 -0 -0 -0 -0 -0 -5 -16 -0 -0 -0 -0 -0 -0 -0 -0 -0 -0 -0 -0 -0 -0 -0 -311 -71 -156 -223 -205 -137 -186 -100 -151 -96 -56 -131 -153 -159 -237 -292 -320 -400
-0 -0 -0 -0 -0 -0 -0 -0 -0 -14 -12 -32 -0 -0 -0 -0 -0 -0 -0 -0 -0 -0 -0 -0 -0 -0 -0 -103 -112 -136 -138 -112 -463 -538 -274 -99 -94 -128 -202 -224 -334 -431 -451 -145
-0 -0 -0 -0 -0 -0 -11 -20 -0 -0 -0 -9 -0 -0 -0 -0 -0 -0 -0 -0 -0 -0 -0 -0 -0 -0 -0 -287 -79 -100 -114 -136 -0 -0 -0 -82 -33 -97 -133 -214 -103 -247 -351 -549
-0 -0 -0 -0 -0 -0 -0 -0 -1 -3 -0 -0 -0 -0 -0 -0 -0 -0 -0 -0 -0 -0 -0 -0 -0 -0 -0 -211 -59 -120 -138 -97 -278 -183 -107 -30 -105 -93 -164 -286 -299 -274 -317 -65
-0 -0 -0 -0 -0 -1 -14 -11 -1 -0 -0 -0 -0 -0 -0 -0 -0 -0 -0 -0 -0 -0 -0 -0 -0 -0 -0 -166 -55 -82 -135 -127 -97 -128 -161 -266 -0 -128 -219 -269 -205 -182 -233 -0
-0 -5 -3 -0 -0 -0 -16 -0 -23 -0 -0 -0 -0 -0 -0 -0 -0 -0 -0 -0 -0 -0 -0 -0 -0 -0 -0 -54 -75 -65 -122 -120 -161 -199 -140 -187 -149 -48 -138 -258 -265 -0 -0 -0
-8 -0 -0 -0 -0 -0 -7 -15 -3 -0 -0 -2 -0 -0 -0 -0 -90 -102 -146 -155 -102 -0 -0 -0 -0 -0 -36 -152 -116 -86 -128 -140 -144 -159 -177 -184 -198 -59 -147 -270 -0 -0 -0 -0
-2 -0 -0 -0 -0 -0 -0 -19 -9 -0 -1 -0 -0 -0 -0 -0 -66 -0 -181 -152 -179 -31 -0 -206 -255 -14 -219 -121 -56 -76 -125 -132 -103 -165 -141 -119 -74 -231 -73 -0 -0 -0 -0 -0
-0 -0 -0 -0 -0 -0 -0 -0 -0 -0 -0 -0 -0 -2 -0 -0 -110 -49 -88 -132 -128 -171 -161 -5 -279 -1 -111 -40 -43 -68 -88 -123 -135 -147 -122 -123 -195 -14 -0 -0 -0 -0 -0 -0
-0 -0 -0 -0 -0 -0 -1 -0 -0 -0 -0 -0 -0 -1 -0 -0 -8 -68 -63 -68 -149 -141 -162 -194 -0 -0 -163 -70 -51 -68 -93 -95 -170 -174 -167 -0 -0 -0 -0 -0 -0 -0 -0 -0
-3 -0 -0 -0 -0 -0 -0 -0 -0 -0 -0 -0 -0 -0 -0 -0 -49 -63 -63 -120 -141 -152 -202 -277 -299 -298 -126 -102 -101 -114 -90 -129 -150 -281 -0 -0 -0 -0 -0 -0 -0 -0 -0 -0
-6 -0 -0 -0 -0 -0 -0 -0 -0 -0 -0 -0 -0 -0 -0 -0 -0 -0 -89 -112 -170 -242 -0 -0 -292 -266 -300 -97 -113 -161 -94 -122 -96 -0 -0 -0 -0 -0 -0 -0 -0 -0 -0 -0
-0 -0 -0 -0 -0 -0 -0 -0 -0 -0 -0 -0 -0 -0 -0 -0 -1 -58 -53 -42 -146 -243 -362 -149 -56 -144 -192 -157 -157 -93 -119 -0 -1 -0 -0 -0 -0 -0 -0 -0 -0 -0 -0 -0
-0 -0 -0 -0 -0 -0 -0 -0 -0 -0 -10 -0 -3 -2 -0 -0 -100 -37 -44 -130 -167 -23 -383 -52 -67 -263 -296 -279 -263 -0 -0 -0 -0 -0 -0 -0 -0 -0 -0 -0 -0 -0 -0 -0
-0 -0 -0 -0 -8 -0 -0 -0 -0 -0 -0 -0 -0 -0 -0 -0 -0 -0 -44 -60 -65 -234 -99 -54 -97 -298 -417 -0 -0 -0 -0 -0 -0 -0 -0 -0 -0 -0 -0 -0 -0 -0 -0 -0
-0 -0 -0 -1 -0 -0 -0 -0 -0 -0 -0 -0 -0 -0 -0 -0 -0 -0 -66 -100 -82 -114 -69 -28 -217 -406 -0 -0 -0 -0 -0 -0 -0 -0 -0 -0 -0 -0 -0 -0 -0 -0 -0 -0
-0 -0 -0 -0 -1 -0 -0 -0 -0 -0 -0 -0 -0 -0 -0 -0 -0 -0 -0 -0 -0 -18 -0 -78 -220 -0 -0 -0 -0 -0 -0 -0 -0 -0 -0 -1 -0 -0 -0 -0 -0 -0 -0 -0
-0 -0 -0 -0 -0 -1 -0 -0 -0 -0 -0 -0 -0 -0 -0 -0 -0 -0 -0 -0 -83 -114 -57 -164 -1 -0 -1 -1 -0 -0 -0 -0 -0 -0 -0 -0 -0 -0 -0 -0 -0 -0 -0 -0
-0 -0 -0 -0 -0 -0 -0 -0 -0 -0 -0 -0 -0 -0 -0 -0 -0 -0 -0 -70 -77 -56 -17 -0 -0 -0 -1 -0 -0 -0 -0 -0 -0 -1 -0 -0 -0 -0 -0 -0 -0 -0 -0 -0
-0 -0 -0 -0 -0 -0 -0 -0 -0 -0 -0 -0 -0 -0 -0 -0 -0 -0 -0 -123 -33 -0 -0 -0 -1 -0 -0 -0 -0 -0 -0 -1 -0 -0 -0 -0 -0 -0 -0 -0 -0 -0 -0 -0
-0 -0 -0 -0 -0 -0 -0 -0 -0 -0 -0 -0 -0 -0 -0 -0 -0 -0 -0 -0 -0 -0 -1 -1 -0 -0 -0 -0 -0 -0 -0 -0 -0 -0 -0 -0 -0 -0 -0 -0 -0 -0 -0 -0
-0 -0 -0 -0 -0 -0 -0 -0 -0 -0 -0 -0 -0 -0 -0 -0 -0 -0 -0 -0 -0 -0 -1 -0 -1 -1 -0 -0 -0 -0 -0 -0 -0 -0 -0 -0 -0 -0 -0 -0 -0 -0 -0 -0
-0 -0 -0 -0 -0 -0 -0 -0 -0 -0 -0 -0 -0 -0 -0 -0 -0 -0 -0 -0 -0 -0 -0 -0 -0 -0 -0 -0 -0 -0 -0 -0 -0 -0 -0 -0 -0 -0 -0 -0 -0 -0 -0 -0
Wind_Speed
8 1 7 13 12 13 9 13 14 16 16 10 15 17 15 9 6 10 15 9 10 13 17 8 6 7 15 14 13 12 15 13 9 5 4 7 9 6 6 4 6 6 5 7
4 7 15 13 16 12 11 16 19 20 16 13 14 14 12 9 8 10 13 15 9 9 11 10 8 8 16 20 17 14 13 17 14 7 6 5 7 4 6 4 4 6 7 7
6 9 8 4 7 9 14 16 16 15 19 15 7 19 10 6 6 11 14 15 11 10 11 9 9 8 12 18 20 18 12 13 16 17 5 1 3 5 4 4 5 4 7 8
7 4 6 10 12 7 14 8 12 13 6 5 4 17 21 11 12 14 16 14 13 10 9 9 7 7 14 16 21 20 18 17 9 11 8 4 5 6 4 5 5 6 8 10
9 8 8 12 17 14 17 14 17 17 13 3 5 9 23 8 12 12 11 15 17 15 10 12 9 10 9 15 17 18 20 20 14 12 10 13 6 8 10 8 11 8 7 9
9 4 6 14 10 11 14 13 7 6 2 12 14 11 16 10 18 16 12 13 15 15 14 11 14 9 6 13 16 18 20 21 18 16 14 9 10 16 14 11 10 5 5 6
7 4 3 5 8 7 13 6 3 4 1 12 13 13 19 9 11 12 16 13 12 14 14 9 15 10 5 12 16 17 22 20 22 23 22 18 14 12 17 14 13 10 7 6
4 8 5 8 9 5 2 5 3 5 4 5 3 9 8 12 13 15 16 10 16 17 9 9 11 9 6 14 17 20 20 18 19 20 17 15 13 8 12 14 10 4 5 6
6 6 15 22 11 7 4 5 7 6 3 7 6 7 9 15 8 6 8 7 11 16 15 11 10 13 9 13 19 21 19 17 18 20 17 16 14 12 11 16 15 9 7 6
2 14 11 9 7 12 13 8 4 3 4 6 4 6 9 4 4 6 11 9 11 9 14 7 7 9 10 12 18 19 19 21 20 19 17 15 13 13 13 14 17 17 9 11
4 6 6 6 6 5 3 2 1 3 4 4 4 6 8 4 1 5 9 13 10 12 8 7 4 6 15 17 16 16 18 21 20 22 19 18 12 15 14 13 15 14 12 10
3 5 7 11 19 13 11 8 7 4 4 5 4 6 10 3 4 1 12 13 9 6 8 7 8 7 11 16 16 15 15 22 23 22 20 18 17 16 16 15 15 15 12 9
5 4 5 7 3 4 3 6 7 6 4 10 11 5 2 4 9 2 10 7 7 8 10 8 7 7 9 15 16 15 18 19 22 22 21 17 18 17 17 17 15 16 15 8
8 4 8 10 14 6 11 17 15 11 6 8 15 12 13 10 13 8 9 6 9 9 6 5 8 7 11 13 14 16 17 21 21 21 20 18 18 19 17 15 15 17 14 13
8 5 8 16 19 20 20 21 20 16 17 15 17 13 14 15 16 7 7 6 11 9 8 9 13 9 12 9 13 17 17 18 20 20 21 19 20 20 18 15 15 16 15 14
2 4 4 13 17 15 15 11 15 6 16 19 21 18 9 14 6 4 5 7 9 8 14 9 7 13 12 11 15 19 18 19 21 23 22 22 20 21 19 15 14 17 17 11
2 3 3 7 9 14 3 7 10 13 12 7 5 3 6 9 11 6 9 10 12 11 14 6 10 18 17 18 21 20 19 19 22 22 22 22 21 19 18 16 17 17 14 12
4 3 3 6 9 3 5 10 9 14 18 11 12 13 12 14 14 15 6 8 12 6 8 9 15 20 23 23 25 19 24 20 25 24 21 21 25 19 15 17 18 13 13 12
5 1 4 3 3 7 4 7 13 8 9 3 15 17 15 16 13 6 7 6 5 7 1 10 20 26 26 27 27 23 18 23 21 25 23 21 19 18 19 18 15 14 14 12
6 6 3 3 4 4 4 16 17 11 5 16 22 21 18 11 5 6 8 8 7 9 9 9 22 27 26 22 25 29 23 23 20 17 21 18 19 19 19 16 16 13 13 12
6 3 3 4 4 1 8 18 19 3 8 23 23 24 18 5 6 8 12 10 5 10 20 21 24 25 23 23 24 24 25 23 20 19 20 16 19 18 15 18 14 13 13 11
3 4 3 4 4 5 12 6 5 9 17 21 20 15 11 1 7 7 8 1 13 15 25 23 22 22 20 20 23 24 22 23 23 21 20 19 17 14 15 17 13 12 12 12
3 3 3 4 7 3 5 8 9 13 17 12 14 12 8 5 5 5 4 13 11 16 20 19 21 26 18 19 23 23 20 23 23 22 19 15 15 13 14 15 13 10 9 8
1 2 4 4 1 5 12 7 11 16 17 12 11 9 8 4 4 12 16 16 13 14 22 21 23 24 22 20 22 22 21 21 21 20 18 16 15 14 12 9 8 8 8 8
2 3 4 9 9 11 3 12 14 18 14 12 12 8 8 7 10 18 17 18 10 15 22 21 23 22 22 21 20 20 20 21 20 19 17 15 13 14 12 9 6 8 5 7
3 3 3 4 6 4 10 11 17 16 9 11 10 10 9 8 13 18 19 15 13 16 21 19 21 22 20 21 21 19 18 19 21 19 14 12 12 12 12 13 13 17 12 11
Wind_Direction
264 84 252 246 213 232 249 270 276 278 276 294 282 279 264 255 263 283 293 290 283 269 267 267 265 138 152 168 164 153 143 151 124 176 207 205 187 163 161 152 160 149 143 108
339 244 245 252 255 233 237 257 268 273 273 276 285 266 262 261 242 247 262 277 257 274 285 271 265 131 160 168 178 155 168 162 147 202 224 206 181 155 146 123 130 128 120 124
231 249 289 318 326 296 243 242 258 262 283 273 297 281 284 263 258 270 268 262 263 244 267 270 264 155 178 171 175 172 178 182 185 177 191 234 68 63 71 106 93 90 107 117
237 257 314 301 287 268 278 240 259 279 315 264 109 285 269 271 254 255 263 264 273 264 263 263 257 244 170 187 180 187 170 172 162 155 162 189 205 138 107 82 84 82 102 102
249 294 286 283 269 266 267 268 268 267 265 272 218 268 271 203 251 245 253 262 267 266 251 263 251 247 183 173 180 182 181 173 166 164 188 191 193 126 108 103 96 80 80 96
277 244 247 251 279 289 264 274 310 281 179 253 241 222 271 220 241 252 240 241 249 257 257 245 252 240 217 175 174 172 177 180 166 157 173 216 148 133 123 124 108 100 89 92
299 261 271 59 1 339 29 29 277 303 217 252 213 235 243 269 264 250 249 247 250 247 252 234 258 239 211 179 174 173 174 174 169 174 181 170 152 123 135 126 123 143 133 131
13 326 17 3 336 277 218 172 252 235 216 265 240 236 245 232 249 248 254 247 257 252 241 228 247 237 203 187 182 179 175 169 155 156 157 158 151 147 137 129 106 134 126 133
303 247 320 309 304 272 166 191 153 294 248 252 214 279 298 266 267 273 260 276 280 249 241 237 236 250 226 192 195 184 169 151 158 153 146 154 153 150 150 134 131 127 134 137
227 293 256 293 316 274 231 185 229 205 246 242 254 241 244 16 12 329 323 311 293 283 243 210 244 230 232 216 199 176 163 148 149 152 136 143 153 136 160 147 133 124 139 122
202 225 274 342 228 248 337 352 231 215 222 246 290 249 191 183 259 306 307 307 302 287 240 140 7 263 226 197 190 171 156 140 142 141 145 147 152 141 128 119 118 121 123 123
164 259 259 243 276 283 249 246 181 243 246 254 274 248 270 69 326 296 248 282 287 307 265 103 342 335 233 184 176 168 150 141 142 141 146 142 140 133 125 121 124 123 120 113
185 236 281 305 351 8 201 206 218 231 243 236 254 239 221 293 282 230 266 279 297 274 291 51 326 350 240 186 171 150 142 143 136 138 139 138 134 133 125 123 129 127 109 102
214 222 216 259 265 267 277 275 275 255 242 261 246 280 295 295 295 290 279 277 285 257 284 23 312 284 245 200 159 140 134 140 135 132 130 131 126 122 119 125 117 100 101 101
165 251 222 253 269 275 273 279 288 251 252 254 271 272 278 286 279 249 243 264 281 283 325 323 293 251 211 174 141 125 131 129 127 122 120 123 117 114 109 104 96 102 96 83
176 253 262 273 262 270 287 287 298 297 251 253 258 267 338 285 277 236 294 272 289 328 320 314 224 141 110 119 117 116 120 121 125 122 120 120 117 114 103 104 108 91 84 89
45 313 282 270 331 306 187 359 326 317 304 327 306 1 326 326 325 320 311 335 319 314 314 303 133 114 107 107 110 112 109 114 115 114 116 115 110 104 107 109 94 89 95 87
148 236 237 289 309 347 155 38 334 310 285 1 357 345 331 321 309 299 276 290 275 274 277 186 117 105 103 106 99 104 105 110 107 103 106 110 95 109 112 103 94 101 91 88
193 211 286 275 268 270 160 19 334 337 302 4 342 328 312 307 314 276 237 263 275 213 136 130 125 111 109 108 105 100 105 107 102 109 106 100 119 121 109 106 109 102 95 88
272 219 247 293 270 277 17 334 320 300 256 1 334 314 299 306 324 259 325 310 278 207 137 136 119 110 109 115 116 109 114 93 105 105 108 121 124 108 106 119 108 106 96 93
315 326 227 284 278 250 6 336 314 4 322 325 312 303 303 241 239 295 298 295 214 106 128 129 117 114 116 118 118 117 115 114 113 109 110 109 97 113 129 106 101 103 101 98
283 318 304 319 280 296 17 354 24 305 297 298 299 311 329 10 259 283 282 285 100 136 124 119 119 113 108 112 111 111 112 117 113 112 110 110 117 117 108 112 115 105 98 89
265 220 263 205 241 312 349 301 318 308 305 313 305 321 333 357 321 307 21 69 98 118 113 114 113 105 108 118 113 107 116 111 112 110 106 106 100 103 114 114 108 100 102 107
242 152 249 316 290 316 314 324 326 320 314 314 323 332 341 349 328 88 79 73 83 107 110 111 108 107 108 104 106 112 106 104 103 103 99 91 92 91 84 88 95 107 110 99
230 317 256 265 288 323 186 333 332 316 321 335 339 338 359 8 55 86 85 78 91 103 105 104 101 100 98 98 97 104 107 108 103 96 94 94 90 90 86 72 96 98 64 105
197 238 254 273 330 267 283 319 322 314 342 332 346 1 28 70 79 97 78 82 84 91 99 99 92 97 97 98 99 101 105 107 106 103 101 105 107 104 104 103 97 63 88 85